Wind_Speed
15 17 16 16 15 13 12 9 7 6 5 4 2 1 3 4 5 6 6 8 9 11 12 13 14 12 13 15 16 16 15 17
15 17 17 17 14 13 11 10 8 5 3 3 2 2 3 4 6 5 6 8 10 12 12 12 13 12 14 16 16 17 16 17
16 17 17 15 14 12 11 9 6 5 5 5 2 2 3 4 5 6 8 9 11 11 12 12 13 13 14 16 16 18 16 17
14 17 16 15 14 13 11 10 10 10 10 6 3 1 2 5 6 7 8 10 10 10 11 11 12 13 15 16 16 17 19 18
14 16 16 15 15 14 13 13 12 11 9 5 5 7 8 6 7 8 9 9 9 10 11 11 12 14 15 15 16 17 16 16
13 16 15 16 15 14 14 13 13 13 9 7 6 7 5 5 8 9 9 9 9 11 11 11 13 15 15 16 17 18 16 14
15 16 16 15 14 14 12 12 12 10 9 8 7 7 7 9 10 10 11 10 10 10 12 12 14 16 16 17 17 17 16 14
13 16 15 14 13 12 12 10 9 9 7 7 7 8 8 8 10 11 12 12 12 12 13 13 15 17 17 18 18 16 16 14
13 15 14 13 12 12 11 9 9 7 7 7 8 9 9 10 11 12 12 13 13 14 15 14 16 17 18 18 18 15 15 15
12 13 12 12 12 11 10 8 7 6 7 7 8 10 11 11 11 12 12 12 14 15 16 15 16 17 19 19 16 16 15 16
12 12 12 11 13 11 8 6 5 6 7 8 10 11 11 11 11 12 13 14 14 15 15 16 17 18 19 18 15 16 16 16
11 12 11 12 12 9 6 4 5 7 8 8 9 10 11 11 12 13 14 14 15 14 16 16 18 19 18 16 16 19 18 19
11 12 12 12 10 5 4 4 6 7 7 8 10 10 11 12 13 14 14 15 14 15 16 17 17 18 17 16 19 22 18 21
11 11 10 10 7 3 4 5 5 6 7 8 10 11 12 13 13 14 15 15 15 16 16 16 17 18 17 17 20 24 21 21
9 9 10 8 4 3 3 4 5 6 7 9 10 11 13 13 13 14 15 15 16 17 16 16 17 18 16 21 24 24 22 19
9 8 9 7 4 1 2 3 4 6 7 9 11 12 12 13 13 14 15 16 17 16 17 17 18 18 18 24 27 26 22 20
8 9 8 6 4 2 2 2 4 6 7 9 11 11 12 13 13 14 15 16 17 17 18 19 19 18 22 26 27 26 21 19
9 9 10 6 5 3 1 2 3 6 7 9 10 11 12 13 14 15 17 17 18 18 19 21 21 19 25 28 29 22 20 20
10 12 9 7 5 3 3 3 4 6 7 8 10 11 12 13 15 16 17 18 19 19 20 21 21 21 24 29 30 22 20 21
Wind_Direction
154 155 149 146 142 137 129 124 124 127 123 119 115 42 22 4 5 353 359 2 357 349 344 342 346 343 343 341 337 335 329 332
147 145 144 139 134 127 121 116 114 107 106 78 18 349 13 4 15 7 9 2 353 348 350 346 347 344 343 341 339 338 337 340
139 143 141 139 130 121 116 109 94 66 56 58 19 352 25 18 356 357 4 357 354 354 351 348 348 344 343 344 343 338 335 337
143 144 139 132 124 118 106 96 84 74 68 49 19 328 344 356 336 349 348 350 353 352 348 348 346 344 343 341 341 338 329 327
141 139 139 123 111 104 96 89 82 74 73 45 2 3 6 345 344 347 345 342 347 349 345 344 344 342 340 338 335 329 326 323
137 139 127 119 112 105 97 87 80 74 57 38 5 17 6 350 349 343 347 344 343 347 344 339 339 340 336 333 331 326 323 319
129 126 129 120 110 101 93 90 80 66 55 40 31 23 6 360 355 350 349 343 339 340 339 334 335 335 333 331 327 323 322 313
136 142 133 120 118 106 92 86 75 62 51 35 26 17 11 1 355 349 345 341 339 338 336 331 332 331 329 329 324 324 320 308
148 142 135 123 105 96 96 82 68 51 32 28 20 13 4 357 353 349 343 336 335 331 330 326 327 328 328 327 325 323 316 309
143 135 121 115 113 102 92 74 58 37 28 20 14 8 1 355 350 346 340 335 331 329 327 324 326 327 327 326 327 322 314 313
142 135 130 121 108 101 83 71 53 35 23 16 9 1 356 353 349 344 339 334 331 329 327 326 327 328 327 328 326 326 317 315
148 139 132 118 116 95 83 66 46 27 19 12 5 359 355 352 348 344 341 336 335 333 331 330 329 329 331 330 326 328 314 318
145 144 134 132 120 81 73 54 35 22 16 7 1 356 355 355 354 350 346 344 341 336 335 333 332 335 335 332 330 324 318 320
152 151 142 137 129 96 62 41 32 18 10 2 1 0 359 357 356 354 353 349 346 342 339 338 339 340 337 335 328 326 323 319
163 160 148 152 120 85 58 42 24 10 6 5 5 2 0 358 357 356 354 352 349 347 344 343 344 342 341 337 333 328 324 320
173 165 157 143 133 109 74 33 19 8 6 7 6 3 4 2 1 359 358 358 355 351 349 348 347 346 346 341 337 330 323 321
167 166 149 151 166 146 78 44 21 7 10 11 8 9 8 5 3 1 359 358 357 356 355 353 351 348 349 341 339 332 327 326
168 165 143 167 166 148 42 78 25 13 15 13 14 11 8 5 2 0 0 358 356 357 357 357 354 349 350 345 343 337 332 327
160 130 144 150 161 136 112 75 29 26 22 22 16 10 7 5 4 1 359 358 358 358 358 357 355 354 353 349 346 344 338 336
Height
832 837 843 849 854 858 861 864 866 868 869 869 870 871 870 870 868 868 867 864 863 861 857 855 852 849 846 843 839 835 830 826
836 842 847 852 857 861 864 866 869 870 870 871 871 871 871 871 869 869 866 865 863 860 857 855 852 849 847 844 839 835 829 826
841 847 852 856 859 863 866 869 871 872 872 872 873 872 870 870 871 870 867 865 863 860 858 855 853 849 846 843 840 836 831 828
844 850 854 859 862 865 868 871 873 873 873 875 874 872 870 868 871 868 867 866 863 861 859 855 853 850 846 843 840 837 832 828
846 853 858 862 866 869 872 874 874 874 873 875 876 873 869 872 870 868 866 865 863 861 859 856 853 849 846 843 840 837 834 828
850 856 862 867 869 872 875 876 875 875 875 877 876 874 873 872 869 868 866 864 863 861 859 856 853 849 846 843 839 837 832 829
855 862 867 869 873 875 877 877 877 878 878 878 878 876 874 872 871 868 865 863 861 859 857 855 852 849 845 841 837 834 831 828
861 865 868 872 875 877 880 881 880 880 880 880 879 877 875 873 871 869 866 864 862 859 857 854 850 848 844 839 835 831 829 826
863 866 870 875 878 882 883 884 883 883 882 881 880 878 876 874 872 870 867 865 861 860 856 853 849 846 842 837 832 830 827 824
865 870 874 879 881 884 886 886 885 884 883 882 881 879 877 875 873 870 867 864 861 858 855 851 847 844 840 835 830 828 825 822
868 873 877 880 885 887 887 887 887 885 885 884 883 881 879 876 873 871 867 864 860 856 853 849 846 842 838 833 829 826 822 819
870 876 880 884 887 888 888 888 887 887 886 885 883 881 879 876 873 870 867 863 859 855 852 848 844 840 836 832 828 823 819 815
872 877 882 886 888 890 889 889 889 888 888 886 884 882 880 877 874 871 867 863 859 855 851 847 843 838 834 830 826 821 815 810
875 879 883 887 889 890 890 890 890 889 888 887 885 883 880 877 874 871 867 863 859 855 850 846 842 837 833 829 825 818 812 807
875 879 885 888 890 891 891 891 891 890 889 888 886 884 881 878 875 871 867 863 859 854 850 846 841 836 832 828 822 815 809 804
875 879 884 888 892 893 892 893 892 891 890 888 887 885 882 879 875 872 868 864 859 855 850 845 840 836 832 827 820 813 807 801
876 881 885 891 893 893 893 893 893 892 891 890 888 886 883 880 876 872 868 864 860 855 850 845 840 836 831 826 819 811 804 799
878 882 888 891 893 894 894 894 894 894 892 891 889 887 884 881 877 873 869 865 860 855 850 845 840 835 831 824 817 809 803 797
880 886 889 892 893 894 895 895 895 894 894 893 891 889 886 882 878 874 870 865 860 855 851 846 841 836 830 823 815 808 801 796